Flag for Switzerland Weather past 2 weeks in Davos, Graubünden, Switzerland

Now
35 °F

Overcast.


Feels Like: 28 °F
Forecast: 9 / 32 °F
Wind: 8 mph from South

Location: Chur-Ems

Current Time: Feb 27, 2015 at 7:55:30 AM

Latest Report: Feb 27, 2015 at 7:00 AM


Visibility: 8 mi

Pressure: 29.95 "Hg

Humidity: 52%

Dew point: 18 °F

Location of DavosLocation

Historic Weather in Davos — Graph

°F

Davos temperature yesterday

Maximum temperature yesterday: 47 °F (at 4:00 PM)
Minimum temperature yesterday: 28 °F (at 8:00 AM)
Average temperature yesterday: 37 °F

Past Weeks' High & Low Weather Summary

 TemperatureHumidityPressure
High55 °F (Feb 16, 3:00 PM)94% (Feb 15, 9:00 AM)30.73 "Hg (Feb 15, 9:00 AM)
Low25 °F (Feb 19, 5:00 AM)19% (Feb 20, 2:00 PM)29.47 "Hg (Feb 21, 2:00 PM)
Average37 °F66%30.09 "Hg
* Reported Feb 12 6:00 AM — Feb 27 6:00 AM, Davos, Weather by CustomWeather, © 2015

Note: Actual official high and low records may vary slightly from our data, if they occured in-between our weather recording intervals... More about our weather records

Advertising

Davos weather history for previous 24 hours

 ConditionsComfort  
Time TempWeatherWind HumidityBarometerVisibility
6:00 AM
Fri, Feb 27
34 °FChilly.12 mph45%29.94 "HgN/A
5:00 AM34 °FChilly.14 mph44%29.94 "HgN/A
3:00 AM32 °FChilly.8 mph48%30.01 "HgN/A
2:00 AM31 °FChilly.7 mph51%30.03 "HgN/A
1:00 AM33 °FClear.10 mph46%30.05 "Hg16 mi
12:00 AM33 °FChilly.13 mph44%30.06 "HgN/A
11:00 PM
Thu, Feb 26
32 °FChilly.3 mph54%30.08 "HgN/A
10:00 PM31 °FClear.3 mph58%30.10 "Hg16 mi
9:00 PM32 °FChilly.3 mph61%30.11 "HgN/A
8:00 PM33 °FChilly.3 mph61%30.10 "HgN/A
7:00 PM37 °FClear.8 mph43%30.08 "Hg16 mi
6:00 PM40 °FChilly.5 mph38%30.06 "HgN/A
5:00 PM44 °FQuite cool.2 mph37%30.03 "HgN/A
4:00 PM47 °FSunny.2 mph25%30.03 "Hg19 mi
3:00 PM46 °FCool.2 mph27%30.06 "HgN/A
2:00 PM45 °FCool.5 mph31%30.09 "HgN/A
1:00 PM43 °FSunny.7 mph35%30.13 "Hg16 mi
12:00 PM42 °FQuite cool.8 mph40%30.17 "HgN/A
11:00 AM37 °FChilly.8 mph45%30.22 "HgN/A
10:00 AM34 °FSunny.12 mph53%30.26 "Hg16 mi
9:00 AM29 °FChilly.6 mph67%30.30 "HgN/A
8:00 AM28 °FChilly.7 mph68%30.30 "HgN/A
Weather by CustomWeather, © 2015

See weather overviewHow to use our weather pages